Weather History for Malmstrom AFB, MT

Change the Weather History Date:

Sunday, May 4, 2014

  Actual Average (KGTF) Record (KGTF)
Temperature  
Mean Temperature 46 °F 48 °F  
Max Temperature 54 °F 62 °F 87 °F (1936)
Min Temperature 39 °F 35 °F 23 °F (1996)
Degree Days  
Heating Degree Days 18 17  
Month to date heating degree days 69  
Since 1 July heating degree days 7186  
Cooling Degree Days 0 0  
Month to date cooling degree days 0  
Year to date cooling degree days 1  
Moisture  
Dew Point 40 °F    
Average Humidity 84    
Maximum Humidity 96    
Minimum Humidity 64    
Precipitation  
Precipitation 0.58 in 0.05 in 0.90 in (1917)
Month to date precipitation 0.21  
Year to date precipitation 3.52  
Snow  
Snow 0.00 in 0.20 in 7.50 in (1913)
Month to date snowfall 0.6  
Since 1 July snowfall 61.1  
Snow Depth -    
Sea Level Pressure  
Sea Level Pressure 29.84 in    
Wind  
Wind Speed 5 mph (NE)    
Max Wind Speed 13 mph    
Max Gust Speed 21 mph    
Visibility 8 miles    
Events Rain    
T = Trace of Precipitation, MM = Missing Value Source: NWS Daily Summary

Daily Weather History Graph

Daily Weather History Graph

Search for Another Location

Airport:

Trip Planner

Search our weather history database for the weather conditions in past years. The results will help you decide how hot, cold, wet, or windy it might be!

Date:

Astronomy

May. 04, 2014 Rise Set
Actual Time 6:03 AM MDT 8:40 PM MDT
Civil Twilight 5:28 AM MDT 9:15 PM MDT
Nautical Twilight 4:44 AM MDT 10:00 PM MDT
Astronomical Twilight 3:53 AM MDT 10:51 PM MDT
Moon 10:29 AM MDT (5/4) 12:50 AM MDT (5/4)
Length of Visible Light 15h 47m
Length of Day
14h 37m
Waxing Crescent, 28% of the Moon is Illuminated
May 4
Waxing Crescent
May 6
First Quarter
May 14
Full
May 21
Last Quarter
May 28
New

Hourly Weather History & Observations

Time (MDT) Temp. Windchill Dew Point Humidity Pressure Visibility Wind Dir Wind Speed Gust Speed Precip Events Conditions
12:56 AM 41.0 °F 35.2 °F 37.9 °F 89% 29.96 in 10.0 mi SE 9.2 mph - 0.00 in   Overcast
1:56 AM 41.0 °F - 37.9 °F 89% 29.96 in 10.0 mi Calm Calm - 0.00 in   Overcast
2:56 AM 39.9 °F 35.8 °F 37.9 °F 93% 29.94 in 10.0 mi SSE 5.8 mph - 0.00 in Rain Light Rain
3:56 AM 41.0 °F 37.1 °F 37.9 °F 89% 29.89 in 10.0 mi East 5.8 mph - 0.00 in   Overcast
4:56 AM 39.9 °F 35.8 °F 37.9 °F 93% 29.89 in 10.0 mi NNE 5.8 mph - 0.00 in Rain Light Rain
5:56 AM 39.0 °F 34.8 °F 37.9 °F 96% 29.87 in 6.0 mi NE 5.8 mph - 0.00 in   Overcast
6:06 AM 39.2 °F 34.2 °F 37.4 °F 93% 29.74 in 6.0 mi North 6.9 mph - N/A   Overcast
6:56 AM 39.9 °F 37.8 °F 37.9 °F 93% 29.89 in 6.0 mi NNE 3.5 mph - 0.04 in Rain Light Rain
7:07 AM 39.2 °F 35.9 °F 37.4 °F 93% 29.76 in 4.0 mi NNE 4.6 mph - 0.01 in Rain Light Rain
7:25 AM 39.2 °F 35.9 °F 37.4 °F 93% 29.76 in 8.0 mi NNE 4.6 mph - 0.01 in Rain Light Rain
7:56 AM 39.9 °F 37.8 °F 37.9 °F 93% 29.90 in 4.0 mi ENE 3.5 mph - 0.03 in Rain Rain
8:34 AM 39.2 °F - 37.4 °F 93% 29.76 in 5.0 mi Calm Calm - 0.06 in Rain Light Rain
8:43 AM 39.2 °F - 37.4 °F 93% 29.78 in 5.0 mi Calm Calm - 0.07 in Rain Light Rain
8:56 AM 39.9 °F - 37.0 °F 89% 29.91 in 4.0 mi Calm Calm - 0.09 in Rain Rain
9:12 AM 39.2 °F - 37.4 °F 93% 29.77 in 6.0 mi Calm Calm - 0.02 in Rain Light Rain
9:19 AM 39.2 °F 37.0 °F 37.4 °F 93% 29.77 in 6.0 mi East 3.5 mph - 0.03 in Rain Light Rain
9:30 AM 41.0 °F - 39.2 °F 93% 29.77 in 8.0 mi Calm Calm - 0.04 in Rain Light Rain
9:41 AM 41.0 °F 39.0 °F 39.2 °F 93% 29.77 in 10.0 mi East 3.5 mph - 0.04 in Rain Light Rain
9:52 AM 42.8 °F 39.3 °F 39.2 °F 87% 29.76 in 10.0 mi SE 5.8 mph - 0.04 in   Overcast
9:56 AM 42.1 °F 39.2 °F 39.9 °F 92% 29.89 in 10.0 mi SSE 4.6 mph - 0.04 in   Overcast
10:56 AM 43.0 °F 39.5 °F 39.9 °F 89% 29.90 in 10.0 mi NNW 5.8 mph - 0.00 in   Overcast
11:08 AM 44.6 °F 41.4 °F 41.0 °F 87% 29.78 in 10.0 mi WNW 5.8 mph - N/A   Overcast
11:30 AM 46.4 °F 43.5 °F 41.0 °F 81% 29.77 in 10.0 mi NNW 5.8 mph - N/A   Overcast
11:52 AM 46.4 °F - 41.0 °F 81% 29.78 in 10.0 mi Calm Calm - N/A   Mostly Cloudy
11:56 AM 48.0 °F - 41.0 °F 77% 29.90 in 10.0 mi North 3.5 mph - N/A   Overcast
12:32 PM 48.2 °F - 41.0 °F 76% 29.77 in 10.0 mi NW 5.8 mph - N/A   Overcast
12:56 PM 50.0 °F - 41.0 °F 71% 29.89 in 10.0 mi Calm Calm - N/A   Overcast
1:24 PM 51.8 °F - 42.8 °F 71% 29.78 in 10.0 mi NNW 4.6 mph - N/A   Scattered Clouds
1:56 PM 53.1 °F - 42.1 °F 66% 29.89 in 10.0 mi Variable 3.5 mph - N/A   Partly Cloudy
2:56 PM 54.0 °F - 43.0 °F 66% 29.86 in 10.0 mi NNE 9.2 mph - 0.00 in Rain Light Rain
3:51 PM 46.4 °F 40.7 °F 41.0 °F 81% 29.75 in 2.5 mi WNW 12.7 mph - 0.16 in Rain Heavy Rain
3:56 PM 45.0 °F 39.7 °F 39.0 °F 80% 29.88 in 2.0 mi NNW 10.4 mph 20.7 mph 0.24 in Rain Heavy Rain
4:07 PM 44.6 °F 40.2 °F 41.0 °F 87% 29.76 in 1.5 mi North 8.1 mph - 0.13 in Rain Heavy Rain
4:15 PM 48.2 °F - 42.8 °F 82% 29.76 in 3.0 mi North 10.4 mph - 0.14 in Rain Light Rain
4:24 PM 48.2 °F - 44.6 °F 87% 29.77 in 10.0 mi NNW 11.5 mph - 0.14 in   Mostly Cloudy
4:56 PM 52.0 °F - 44.1 °F 74% 29.87 in 10.0 mi NE 10.4 mph - 0.14 in   Clear
5:56 PM 53.1 °F - 41.0 °F 64% 29.88 in 10.0 mi East 4.6 mph - N/A   Clear
6:56 PM 53.1 °F - 41.0 °F 64% 29.86 in 10.0 mi ESE 4.6 mph - N/A   Clear
7:56 PM 50.0 °F - 41.0 °F 71% 29.87 in 10.0 mi SE 8.1 mph - N/A   Clear
8:56 PM 46.9 °F - 39.9 °F 77% 29.88 in 10.0 mi SE 6.9 mph - N/A   Partly Cloudy
9:56 PM 44.1 °F 39.5 °F 39.9 °F 85% 29.90 in 10.0 mi SE 8.1 mph - N/A   Partly Cloudy
10:56 PM 46.0 °F 42.5 °F 39.0 °F 76% 29.90 in 10.0 mi South 6.9 mph - N/A   Partly Cloudy
11:56 PM 46.9 °F - 39.0 °F 74% 29.89 in 10.0 mi WSW 5.8 mph - N/A   Partly Cloudy